Weather History for Ashtabula, OH

Change the Weather History Date:

Monday, May 27, 2013

  Actual Average (KYNG) Record (KYNG)
Temperature  
Mean Temperature 50 °F 61 °F  
Max Temperature 68 °F 72 °F 92 °F (1939)
Min Temperature 35 °F 50 °F 30 °F (1969)
Degree Days  
Heating Degree Days 14 6  
Month to date heating degree days 232  
Since 1 July heating degree days 6259  
Cooling Degree Days 0 2  
Month to date cooling degree days 22  
Year to date cooling degree days 31  
Moisture  
Dew Point 38 °F    
Average Humidity 64    
Maximum Humidity 89    
Minimum Humidity 32    
Precipitation  
Precipitation 0.07 in 0.13 in 2.08 in (2011)
Month to date precipitation 3.27  
Year to date precipitation 14.27  
Snow  
Snow 0.00 in 0.00 in - ()
Month to date snowfall 0.0  
Since 1 July snowfall 62.7  
Snow Depth -    
Sea Level Pressure  
Sea Level Pressure 30.23 in    
Wind  
Wind Speed 3 mph (SSE)    
Max Wind Speed 10 mph    
Max Gust Speed -    
Visibility 10 miles    
Events Rain    
T = Trace of Precipitation, MM = Missing Value Source: NWS Daily Summary

Daily Weather History Graph

Daily Weather History Graph

Search for Another Location

Airport:

Trip Planner

Search our weather history database for the weather conditions in past years. The results will help you decide how hot, cold, wet, or windy it might be!

Date:

Astronomy

May. 27, 2013 Rise Set
Actual Time 5:53 AM EDT 8:47 PM EDT
Civil Twilight 5:20 AM EDT 9:20 PM EDT
Nautical Twilight 4:38 AM EDT 10:02 PM EDT
Astronomical Twilight 3:49 AM EDT 10:51 PM EDT
Moon 11:24 PM EDT (5/27) 8:29 AM EDT (5/27)
Length of Visible Light 16h 00m
Length of Day
14h 54m
Waning Gibbous, 91% of the Moon is Illuminated
May 27
Waning Gibbous
May 31
Last Quarter
Jun 8
New
Jun 16
First Quarter
Jun 23
Full

Hourly Weather History & Observations

Time (EDT) Temp. Windchill Dew Point Humidity Pressure Visibility Wind Dir Wind Speed Gust Speed Precip Events Conditions
12:53 AM 39.0 °F - 35.1 °F 86% 30.29 in 8.0 mi Calm Calm - N/A   Clear
1:53 AM 37.9 °F - 33.1 °F 83% 30.29 in 10.0 mi Calm Calm - N/A   Clear
2:53 AM 36.0 °F - 32.0 °F 86% 30.29 in 9.0 mi Calm Calm - N/A   Clear
3:53 AM 36.0 °F - 30.9 °F 82% 30.28 in 7.0 mi Calm Calm - N/A   Clear
4:53 AM 35.1 °F 32.2 °F 32.0 °F 89% 30.27 in 9.0 mi ESE 3.5 mph - N/A   Clear
5:53 AM 35.1 °F - 30.9 °F 85% 30.28 in 8.0 mi Calm Calm - N/A   Clear
6:53 AM 37.9 °F - 34.0 °F 86% 30.28 in 10.0 mi Calm Calm - N/A   Clear
7:53 AM 46.9 °F - 41.0 °F 80% 30.29 in 10.0 mi SSW 3.5 mph - N/A   Clear
8:53 AM 53.1 °F - 39.9 °F 61% 30.29 in 10.0 mi South 5.8 mph - N/A   Clear
9:53 AM 57.0 °F - 37.0 °F 47% 30.28 in 10.0 mi SE 4.6 mph - N/A   Clear
10:53 AM 60.1 °F - 35.1 °F 39% 30.27 in 10.0 mi SSE 6.9 mph - N/A   Clear
11:53 AM 62.1 °F - 34.0 °F 35% 30.27 in 10.0 mi SSE 3.5 mph - N/A   Clear
12:53 PM 64.0 °F - 36.0 °F 35% 30.25 in 10.0 mi SSW 6.9 mph - N/A   Clear
1:53 PM 66.9 °F - 37.0 °F 33% 30.22 in 10.0 mi Calm Calm - N/A   Clear
2:53 PM 64.9 °F - 34.0 °F 32% 30.21 in 10.0 mi SSW 10.4 mph - N/A   Clear
3:53 PM 63.0 °F - 35.1 °F 35% 30.20 in 10.0 mi SSW 9.2 mph - N/A   Clear
4:53 PM 62.1 °F - 37.9 °F 41% 30.20 in 10.0 mi SSW 8.1 mph - N/A   Mostly Cloudy
5:53 PM 60.1 °F - 41.0 °F 49% 30.20 in 10.0 mi SSW 3.5 mph - N/A   Overcast
6:53 PM 57.0 °F - 48.9 °F 74% 30.18 in 10.0 mi East 3.5 mph - 0.01 in Rain Light Rain
7:53 PM 55.0 °F - 46.0 °F 72% 30.14 in 10.0 mi SE 4.6 mph - 0.01 in Rain Light Rain
8:53 PM 55.0 °F - 46.0 °F 72% 30.13 in 10.0 mi SE 5.8 mph - 0.00 in   Overcast
9:53 PM 53.1 °F - 45.0 °F 74% 30.13 in 10.0 mi SSE 6.9 mph - 0.02 in Rain Light Rain
10:53 PM 53.1 °F - 45.0 °F 74% 30.13 in 10.0 mi SSE 6.9 mph - 0.01 in Rain Light Rain
11:53 PM 52.0 °F - 45.0 °F 77% 30.12 in 10.0 mi SE 6.9 mph - 0.02 in Rain Light Rain